Year,Month,Day,Hour,Minute,Value (Times are PST for temperature in C)
2014,06,21,00,00,11.70
2014,06,21,00,01,11.70
2014,06,21,00,02,11.70
2014,06,21,00,03,11.70
2014,06,21,00,04,11.70
2014,06,21,00,05,11.70
2014,06,21,00,06,11.70
2014,06,21,00,07,11.70
2014,06,21,00,08,11.70
2014,06,21,00,09,11.70
2014,06,21,00,10,11.70
2014,06,21,00,11,11.70
2014,06,21,00,12,11.70
2014,06,21,00,13,11.60
2014,06,21,00,14,11.60
2014,06,21,00,15,11.60
2014,06,21,00,16,11.60
2014,06,21,00,17,11.60
2014,06,21,00,18,11.50
2014,06,21,00,19,11.50
2014,06,21,00,20,11.50
2014,06,21,00,21,11.50
2014,06,21,00,22,11.40
2014,06,21,00,23,11.40
2014,06,21,00,24,11.40
2014,06,21,00,25,11.40
2014,06,21,00,26,11.40
2014,06,21,00,27,11.40
2014,06,21,00,28,11.40
2014,06,21,00,29,11.40
2014,06,21,00,30,11.40
2014,06,21,00,31,11.40
2014,06,21,00,32,11.40
2014,06,21,00,33,11.40
2014,06,21,00,34,11.30
2014,06,21,00,35,11.30
2014,06,21,00,36,11.30
2014,06,21,00,37,11.30
2014,06,21,00,38,11.30
2014,06,21,00,39,11.30
2014,06,21,00,40,11.30
2014,06,21,00,41,11.30
2014,06,21,00,42,11.30
2014,06,21,00,43,11.30
2014,06,21,00,44,11.20
2014,06,21,00,45,11.20
2014,06,21,00,46,11.20
2014,06,21,00,47,11.20
2014,06,21,00,48,11.20
2014,06,21,00,49,11.20
2014,06,21,00,50,11.20
2014,06,21,00,51,11.20
2014,06,21,00,52,11.20
2014,06,21,00,53,11.20
2014,06,21,00,54,11.10
2014,06,21,00,55,11.10
2014,06,21,00,56,11.00
2014,06,21,00,57,11.00
2014,06,21,00,58,10.90
2014,06,21,00,59,10.80
2014,06,21,01,00,10.80
2014,06,21,01,01,10.70
2014,06,21,01,02,10.70
2014,06,21,01,03,10.70
2014,06,21,01,04,10.70
2014,06,21,01,05,10.80
2014,06,21,01,06,10.80
2014,06,21,01,07,10.80
2014,06,21,01,08,10.80
2014,06,21,01,09,10.80
2014,06,21,01,10,10.80
2014,06,21,01,11,10.80
2014,06,21,01,12,10.80
2014,06,21,01,13,10.80
2014,06,21,01,14,10.80
2014,06,21,01,15,10.80
2014,06,21,01,16,10.80
2014,06,21,01,17,10.80
2014,06,21,01,18,10.80
2014,06,21,01,19,10.80
2014,06,21,01,20,10.80
2014,06,21,01,21,10.80
2014,06,21,01,22,10.70
2014,06,21,01,23,10.70
2014,06,21,01,24,10.70
2014,06,21,01,25,10.60
2014,06,21,01,26,10.60
2014,06,21,01,27,10.50
2014,06,21,01,28,10.50
2014,06,21,01,29,10.40
2014,06,21,01,30,10.40
2014,06,21,01,31,10.30
2014,06,21,01,32,10.30
2014,06,21,01,33,10.20
2014,06,21,01,34,10.20
2014,06,21,01,35,10.10
2014,06,21,01,36,10.10
2014,06,21,01,37,10.00
2014,06,21,01,38,10.00
2014,06,21,01,39,9.90
2014,06,21,01,40,9.90
2014,06,21,01,41,9.80
2014,06,21,01,42,9.80
2014,06,21,01,43,9.80
2014,06,21,01,44,9.70
2014,06,21,01,45,9.70
2014,06,21,01,46,9.70
2014,06,21,01,47,9.70
2014,06,21,01,48,9.70
2014,06,21,01,49,9.70
2014,06,21,01,50,9.70
2014,06,21,01,51,9.80
2014,06,21,01,52,9.80
2014,06,21,01,53,9.80
2014,06,21,01,54,9.80
2014,06,21,01,55,9.80
2014,06,21,01,56,9.80
2014,06,21,01,57,9.70
2014,06,21,01,58,9.70
2014,06,21,01,59,9.70
2014,06,21,02,00,9.60
2014,06,21,02,01,9.60
2014,06,21,02,02,9.50
2014,06,21,02,03,9.50
2014,06,21,02,04,9.40
2014,06,21,02,05,9.40
2014,06,21,02,06,9.30
2014,06,21,02,07,9.30
2014,06,21,02,08,9.20
2014,06,21,02,09,9.20
2014,06,21,02,10,9.20
2014,06,21,02,11,9.20
2014,06,21,02,12,9.20
2014,06,21,02,13,9.10
2014,06,21,02,14,9.10
2014,06,21,02,15,9.10
2014,06,21,02,16,9.10
2014,06,21,02,17,9.10
2014,06,21,02,18,9.10
2014,06,21,02,19,9.10
2014,06,21,02,20,9.10
2014,06,21,02,21,9.10
2014,06,21,02,22,9.10
2014,06,21,02,23,9.10
2014,06,21,02,24,9.10
2014,06,21,02,25,9.10
2014,06,21,02,26,9.10
2014,06,21,02,27,9.10
2014,06,21,02,28,9.10
2014,06,21,02,29,9.10
2014,06,21,02,30,9.10
2014,06,21,02,31,9.10
2014,06,21,02,32,9.10
2014,06,21,02,33,9.10
2014,06,21,02,34,9.10
2014,06,21,02,35,9.10
2014,06,21,02,36,9.10
2014,06,21,02,37,9.00
2014,06,21,02,38,9.00
2014,06,21,02,39,9.00
2014,06,21,02,40,8.90
2014,06,21,02,41,8.90
2014,06,21,02,42,8.90
2014,06,21,02,43,8.90
2014,06,21,02,44,8.90
2014,06,21,02,45,8.90
2014,06,21,02,46,8.80
2014,06,21,02,47,8.80
2014,06,21,02,48,8.80
2014,06,21,02,49,8.80
2014,06,21,02,50,8.80
2014,06,21,02,51,8.80
2014,06,21,02,52,8.80
2014,06,21,02,53,8.80
2014,06,21,02,54,8.80
2014,06,21,02,55,8.70
2014,06,21,02,56,8.70
2014,06,21,02,57,8.70
2014,06,21,02,58,8.70
2014,06,21,02,59,8.70
2014,06,21,03,00,8.70
2014,06,21,03,01,8.70
2014,06,21,03,02,8.70
2014,06,21,03,03,8.70
2014,06,21,03,04,8.70
2014,06,21,03,05,8.70
2014,06,21,03,06,8.70
2014,06,21,03,07,8.70
2014,06,21,03,08,8.70
2014,06,21,03,09,8.70
2014,06,21,03,10,8.70
2014,06,21,03,11,8.70
2014,06,21,03,12,8.70
2014,06,21,03,13,8.70
2014,06,21,03,14,8.70
2014,06,21,03,15,8.70
2014,06,21,03,16,8.70
2014,06,21,03,17,8.70
2014,06,21,03,18,8.70
2014,06,21,03,19,8.70
2014,06,21,03,20,8.70
2014,06,21,03,21,8.60
2014,06,21,03,22,8.60
2014,06,21,03,23,8.60
2014,06,21,03,24,8.60
2014,06,21,03,25,8.60
2014,06,21,03,26,8.60
2014,06,21,03,27,8.50
2014,06,21,03,28,8.50
2014,06,21,03,29,8.40
2014,06,21,03,30,8.40
2014,06,21,03,31,8.40
2014,06,21,03,32,8.40
2014,06,21,03,33,8.40
2014,06,21,03,34,8.40
2014,06,21,03,35,8.40
2014,06,21,03,36,8.50
2014,06,21,03,37,8.50
2014,06,21,03,38,8.50
2014,06,21,03,39,8.50
2014,06,21,03,40,8.50
2014,06,21,03,41,8.50
2014,06,21,03,42,8.40
2014,06,21,03,43,8.40
2014,06,21,03,44,8.40
2014,06,21,03,45,8.40
2014,06,21,03,46,8.40
2014,06,21,03,47,8.40
2014,06,21,03,48,8.30
2014,06,21,03,49,8.30
2014,06,21,03,50,8.30
2014,06,21,03,51,8.30
2014,06,21,03,52,8.30
2014,06,21,03,53,8.20
2014,06,21,03,54,8.20
2014,06,21,03,55,8.20
2014,06,21,03,56,8.20
2014,06,21,03,57,8.20
2014,06,21,03,58,8.10
2014,06,21,03,59,8.10
2014,06,21,04,00,8.10
2014,06,21,04,01,8.10
2014,06,21,04,02,8.10
2014,06,21,04,03,8.10
2014,06,21,04,04,8.10
2014,06,21,04,05,8.10
2014,06,21,04,06,8.10
2014,06,21,04,07,8.10
2014,06,21,04,08,8.10
2014,06,21,04,09,8.10
2014,06,21,04,10,8.20
2014,06,21,04,11,8.20
2014,06,21,04,12,8.20
2014,06,21,04,13,8.20
2014,06,21,04,14,8.20
2014,06,21,04,15,8.20
2014,06,21,04,16,8.20
2014,06,21,04,17,8.20
2014,06,21,04,18,8.10
2014,06,21,04,19,8.10
2014,06,21,04,20,8.10
2014,06,21,04,21,8.10
2014,06,21,04,22,8.00
2014,06,21,04,23,8.00
2014,06,21,04,24,7.90
2014,06,21,04,25,7.90
2014,06,21,04,26,7.90
2014,06,21,04,27,7.80
2014,06,21,04,28,7.80
2014,06,21,04,29,7.80
2014,06,21,04,30,7.80
2014,06,21,04,31,7.80
2014,06,21,04,32,7.70
2014,06,21,04,33,7.70
2014,06,21,04,34,7.70
2014,06,21,04,35,7.70
2014,06,21,04,36,7.70
2014,06,21,04,37,7.70
2014,06,21,04,38,7.70
2014,06,21,04,39,7.80
2014,06,21,04,40,7.80
2014,06,21,04,41,7.80
2014,06,21,04,42,7.80
2014,06,21,04,43,7.80
2014,06,21,04,44,7.80
2014,06,21,04,45,7.80
2014,06,21,04,46,7.80
2014,06,21,04,47,7.80
2014,06,21,04,48,7.80
2014,06,21,04,49,7.80
2014,06,21,04,50,7.80
2014,06,21,04,51,7.80
2014,06,21,04,52,7.80
2014,06,21,04,53,7.80
2014,06,21,04,54,7.80
2014,06,21,04,55,7.70
2014,06,21,04,56,7.70
2014,06,21,04,57,7.70
2014,06,21,04,58,7.70
2014,06,21,04,59,7.70
2014,06,21,05,00,7.60
2014,06,21,05,01,7.60
2014,06,21,05,02,7.60
2014,06,21,05,03,7.60
2014,06,21,05,04,7.60
2014,06,21,05,05,7.60
2014,06,21,05,06,7.60
2014,06,21,05,07,7.70
2014,06,21,05,08,7.70
2014,06,21,05,09,7.80
2014,06,21,05,10,7.80
2014,06,21,05,11,7.80
2014,06,21,05,12,7.90
2014,06,21,05,13,7.90
2014,06,21,05,14,7.90
2014,06,21,05,15,7.90
2014,06,21,05,16,7.90
2014,06,21,05,17,7.90
2014,06,21,05,18,7.90
2014,06,21,05,19,7.90
2014,06,21,05,20,7.90
2014,06,21,05,21,7.90
2014,06,21,05,22,7.90
2014,06,21,05,23,7.90
2014,06,21,05,24,7.90
2014,06,21,05,25,7.90
2014,06,21,05,26,7.90
2014,06,21,05,27,7.90
2014,06,21,05,28,7.90
2014,06,21,05,29,7.90
2014,06,21,05,30,7.90
2014,06,21,05,31,7.90
2014,06,21,05,32,7.90
2014,06,21,05,33,7.90
2014,06,21,05,34,7.80
2014,06,21,05,35,7.80
2014,06,21,05,36,7.80
2014,06,21,05,37,7.80
2014,06,21,05,38,7.80
2014,06,21,05,39,7.80
2014,06,21,05,40,7.80
2014,06,21,05,41,7.80
2014,06,21,05,42,7.80
2014,06,21,05,43,7.80
2014,06,21,05,44,7.70
2014,06,21,05,45,7.70
2014,06,21,05,46,7.70
2014,06,21,05,47,7.70
2014,06,21,05,48,7.70
2014,06,21,05,49,7.60
2014,06,21,05,50,7.60
2014,06,21,05,51,7.60
2014,06,21,05,52,7.60
2014,06,21,05,53,7.50
2014,06,21,05,54,7.50
2014,06,21,05,55,7.40
2014,06,21,05,56,7.40
2014,06,21,05,57,7.40
2014,06,21,05,58,7.40
2014,06,21,05,59,7.40
2014,06,21,06,00,7.40
2014,06,21,06,01,7.30
2014,06,21,06,02,7.30
2014,06,21,06,03,7.30
2014,06,21,06,04,7.30
2014,06,21,06,05,7.30
2014,06,21,06,06,7.30
2014,06,21,06,07,7.20
2014,06,21,06,08,7.20
2014,06,21,06,09,7.20
2014,06,21,06,10,7.20
2014,06,21,06,11,7.20
2014,06,21,06,12,7.20
2014,06,21,06,13,7.20
2014,06,21,06,14,7.30
2014,06,21,06,15,7.30
2014,06,21,06,16,7.30
2014,06,21,06,17,7.30
2014,06,21,06,18,7.30
2014,06,21,06,19,7.40
2014,06,21,06,20,7.40
2014,06,21,06,21,7.40
2014,06,21,06,22,7.40
2014,06,21,06,23,7.40
2014,06,21,06,24,7.50
2014,06,21,06,25,7.50
2014,06,21,06,26,7.60
2014,06,21,06,27,7.60
2014,06,21,06,28,7.60
2014,06,21,06,29,7.70
2014,06,21,06,30,7.70
2014,06,21,06,31,7.70
2014,06,21,06,32,7.70
2014,06,21,06,33,7.80
2014,06,21,06,34,7.80
2014,06,21,06,35,7.80
2014,06,21,06,36,7.80
2014,06,21,06,37,7.90
2014,06,21,06,38,7.90
2014,06,21,06,39,7.90
2014,06,21,06,40,7.90
2014,06,21,06,41,7.90
2014,06,21,06,42,8.00
2014,06,21,06,43,8.00
2014,06,21,06,44,8.00
2014,06,21,06,45,8.10
2014,06,21,06,46,8.10
2014,06,21,06,47,8.10
2014,06,21,06,48,8.10
2014,06,21,06,49,8.20
2014,06,21,06,50,8.20
2014,06,21,06,51,8.20
2014,06,21,06,52,8.30
2014,06,21,06,53,8.30
2014,06,21,06,54,8.30
2014,06,21,06,55,8.40
2014,06,21,06,56,8.40
2014,06,21,06,57,8.40
2014,06,21,06,58,8.40
2014,06,21,06,59,8.40
2014,06,21,07,00,8.50
2014,06,21,07,01,8.50
2014,06,21,07,02,8.50
2014,06,21,07,03,8.50
2014,06,21,07,04,8.60
2014,06,21,07,05,8.60
2014,06,21,07,06,8.60
2014,06,21,07,07,8.60
2014,06,21,07,08,8.60
2014,06,21,07,09,8.60
2014,06,21,07,10,8.60
2014,06,21,07,11,8.70
2014,06,21,07,12,8.70
2014,06,21,07,13,8.70
2014,06,21,07,14,8.80
2014,06,21,07,15,8.80
2014,06,21,07,16,8.80
2014,06,21,07,17,8.90
2014,06,21,07,18,8.90
2014,06,21,07,19,9.00
2014,06,21,07,20,9.00
2014,06,21,07,21,9.10
2014,06,21,07,22,9.10
2014,06,21,07,23,9.20
2014,06,21,07,24,9.20
2014,06,21,07,25,9.20
2014,06,21,07,26,9.20
2014,06,21,07,27,9.30
2014,06,21,07,28,9.30
2014,06,21,07,29,9.40
2014,06,21,07,30,9.40
2014,06,21,07,31,9.50
2014,06,21,07,32,9.50
2014,06,21,07,33,9.60
2014,06,21,07,34,9.70
2014,06,21,07,35,9.70
2014,06,21,07,36,9.80
2014,06,21,07,37,9.80
2014,06,21,07,38,9.90
2014,06,21,07,39,10.00
2014,06,21,07,40,10.00
2014,06,21,07,41,10.10
2014,06,21,07,42,10.10
2014,06,21,07,43,10.20
2014,06,21,07,44,10.30
2014,06,21,07,45,10.30
2014,06,21,07,46,10.40
2014,06,21,07,47,10.50
2014,06,21,07,48,10.50
2014,06,21,07,49,10.60
2014,06,21,07,50,10.70
2014,06,21,07,51,10.80
2014,06,21,07,52,10.90
2014,06,21,07,53,10.90
2014,06,21,07,54,11.10
2014,06,21,07,55,11.20
2014,06,21,07,56,11.20
2014,06,21,07,57,11.30
2014,06,21,07,58,11.40
2014,06,21,07,59,11.50
2014,06,21,08,00,11.60
2014,06,21,08,01,11.70
2014,06,21,08,02,11.70
2014,06,21,08,03,11.80
2014,06,21,08,04,11.90
2014,06,21,08,05,12.00
2014,06,21,08,06,12.10
2014,06,21,08,07,12.30
2014,06,21,08,08,12.40
2014,06,21,08,09,12.50
2014,06,21,08,10,12.60
2014,06,21,08,11,12.70
2014,06,21,08,12,12.80
2014,06,21,08,13,12.80
2014,06,21,08,14,12.90
2014,06,21,08,15,12.90
2014,06,21,08,16,12.90
2014,06,21,08,17,13.00
2014,06,21,08,18,13.10
2014,06,21,08,19,13.20
2014,06,21,08,20,13.30
2014,06,21,08,21,13.40
2014,06,21,08,22,13.50
2014,06,21,08,23,13.70
2014,06,21,08,24,13.80
2014,06,21,08,25,13.90
2014,06,21,08,26,14.00
2014,06,21,08,27,14.10
2014,06,21,08,28,14.20
2014,06,21,08,29,14.30
2014,06,21,08,30,14.30
2014,06,21,08,31,14.30
2014,06,21,08,32,14.20
2014,06,21,08,33,14.30
2014,06,21,08,34,14.30
2014,06,21,08,35,14.30
2014,06,21,08,36,14.30
2014,06,21,08,37,14.30
2014,06,21,08,38,14.30
2014,06,21,08,39,14.30
2014,06,21,08,40,14.40
2014,06,21,08,41,14.40
2014,06,21,08,42,14.40
2014,06,21,08,43,14.40
2014,06,21,08,44,14.30
2014,06,21,08,45,14.30
2014,06,21,08,46,14.40
2014,06,21,08,47,14.40
2014,06,21,08,48,14.50
2014,06,21,08,49,14.60
2014,06,21,08,50,14.60
2014,06,21,08,51,14.60
2014,06,21,08,52,14.70
2014,06,21,08,53,14.70
2014,06,21,08,54,14.70
2014,06,21,08,55,14.70
2014,06,21,08,56,14.60
2014,06,21,08,57,14.70
2014,06,21,08,58,14.70
2014,06,21,08,59,14.70
2014,06,21,09,00,14.70
2014,06,21,09,01,14.80
2014,06,21,09,02,14.80
2014,06,21,09,03,14.90
2014,06,21,09,04,15.00
2014,06,21,09,05,15.00
2014,06,21,09,06,15.00
2014,06,21,09,07,15.00
2014,06,21,09,08,15.10
2014,06,21,09,09,15.10
2014,06,21,09,10,15.20
2014,06,21,09,11,15.10
2014,06,21,09,12,15.00
2014,06,21,09,13,15.00
2014,06,21,09,14,15.00
2014,06,21,09,15,15.00
2014,06,21,09,16,15.00
2014,06,21,09,17,15.00
2014,06,21,09,18,15.00
2014,06,21,09,19,15.10
2014,06,21,09,20,15.00
2014,06,21,09,21,15.00
2014,06,21,09,22,15.00
2014,06,21,09,23,15.00
2014,06,21,09,24,15.00
2014,06,21,09,25,15.00
2014,06,21,09,26,15.00
2014,06,21,09,27,15.10
2014,06,21,09,28,15.10
2014,06,21,09,29,15.20
2014,06,21,09,30,15.20
2014,06,21,09,31,15.30
2014,06,21,09,32,15.30
2014,06,21,09,33,15.30
2014,06,21,09,34,15.40
2014,06,21,09,35,15.40
2014,06,21,09,36,15.50
2014,06,21,09,37,15.60
2014,06,21,09,38,15.70
2014,06,21,09,39,15.70
2014,06,21,09,40,15.80
2014,06,21,09,41,15.80
2014,06,21,09,42,15.90
2014,06,21,09,43,16.00
2014,06,21,09,44,16.10
2014,06,21,09,45,16.20
2014,06,21,09,46,16.20
2014,06,21,09,47,16.30
2014,06,21,09,48,16.40
2014,06,21,09,49,16.40
2014,06,21,09,50,16.50
2014,06,21,09,51,16.60
2014,06,21,09,52,16.60
2014,06,21,09,53,16.70
2014,06,21,09,54,16.70
2014,06,21,09,55,16.80
2014,06,21,09,56,16.80
2014,06,21,09,57,16.80
2014,06,21,09,58,16.80
2014,06,21,09,59,16.80
2014,06,21,10,00,16.80
2014,06,21,10,01,16.80
2014,06,21,10,02,16.80
2014,06,21,10,03,16.80
2014,06,21,10,04,16.90
2014,06,21,10,05,16.90
2014,06,21,10,06,16.80
2014,06,21,10,07,16.70
2014,06,21,10,08,16.70
2014,06,21,10,09,16.60
2014,06,21,10,10,16.50
2014,06,21,10,11,16.40
2014,06,21,10,12,16.40
2014,06,21,10,13,16.30
2014,06,21,10,14,16.30
2014,06,21,10,15,16.30
2014,06,21,10,16,16.30
2014,06,21,10,17,16.30
2014,06,21,10,18,16.20
2014,06,21,10,19,16.10
2014,06,21,10,20,16.00
2014,06,21,10,21,16.00
2014,06,21,10,22,16.10
2014,06,21,10,23,16.10
2014,06,21,10,24,16.10
2014,06,21,10,25,16.10
2014,06,21,10,26,16.10
2014,06,21,10,27,16.20
2014,06,21,10,28,16.20
2014,06,21,10,29,16.30
2014,06,21,10,30,16.30
2014,06,21,10,31,16.30
2014,06,21,10,32,16.30
2014,06,21,10,33,16.30
2014,06,21,10,34,16.30
2014,06,21,10,35,16.40
2014,06,21,10,36,16.40
2014,06,21,10,37,16.50
2014,06,21,10,38,16.60
2014,06,21,10,39,16.70
2014,06,21,10,40,16.70
2014,06,21,10,41,16.80
2014,06,21,10,42,16.60
2014,06,21,10,43,16.40
2014,06,21,10,44,16.20
2014,06,21,10,45,16.10
2014,06,21,10,46,16.00
2014,06,21,10,47,15.90
2014,06,21,10,48,15.90
2014,06,21,10,49,15.90
2014,06,21,10,50,15.80
2014,06,21,10,51,15.80
2014,06,21,10,52,15.80
2014,06,21,10,53,15.80
2014,06,21,10,54,15.70
2014,06,21,10,55,15.70
2014,06,21,10,56,15.70
2014,06,21,10,57,15.70
2014,06,21,10,58,15.80
2014,06,21,10,59,15.80
2014,06,21,11,00,16.00
2014,06,21,11,01,16.00
2014,06,21,11,02,16.00
2014,06,21,11,03,16.00
2014,06,21,11,04,16.00
2014,06,21,11,05,16.10
2014,06,21,11,06,16.20
2014,06,21,11,07,16.20
2014,06,21,11,08,16.30
2014,06,21,11,09,16.20
2014,06,21,11,10,16.10
2014,06,21,11,11,16.00
2014,06,21,11,12,16.00
2014,06,21,11,13,16.10
2014,06,21,11,14,16.20
2014,06,21,11,15,16.20
2014,06,21,11,16,16.30
2014,06,21,11,17,16.30
2014,06,21,11,18,16.20
2014,06,21,11,19,16.20
2014,06,21,11,20,16.10
2014,06,21,11,21,16.10
2014,06,21,11,22,16.10
2014,06,21,11,23,16.20
2014,06,21,11,24,16.30
2014,06,21,11,25,16.40
2014,06,21,11,26,16.40
2014,06,21,11,27,16.40
2014,06,21,11,28,16.40
2014,06,21,11,29,16.40
2014,06,21,11,30,16.30
2014,06,21,11,31,16.20
2014,06,21,11,32,16.20
2014,06,21,11,33,16.20
2014,06,21,11,34,16.20
2014,06,21,11,35,16.20
2014,06,21,11,36,16.20
2014,06,21,11,37,16.20
2014,06,21,11,38,16.30
2014,06,21,11,39,16.30
2014,06,21,11,40,16.20
2014,06,21,11,41,16.20
2014,06,21,11,42,16.30
2014,06,21,11,43,16.30
2014,06,21,11,44,16.30
2014,06,21,11,45,16.30
2014,06,21,11,46,16.30
2014,06,21,11,47,16.40
2014,06,21,11,48,16.40
2014,06,21,11,49,16.40
2014,06,21,11,50,16.40
2014,06,21,11,51,16.40
2014,06,21,11,52,16.50
2014,06,21,11,53,16.60
2014,06,21,11,54,16.70
2014,06,21,11,55,16.90
2014,06,21,11,56,16.90
2014,06,21,11,57,17.00
2014,06,21,11,58,16.90
2014,06,21,11,59,16.90
2014,06,21,12,00,16.90
2014,06,21,12,01,16.90
2014,06,21,12,02,16.80
2014,06,21,12,03,16.80
2014,06,21,12,04,16.80
2014,06,21,12,05,16.70
2014,06,21,12,06,16.70
2014,06,21,12,07,16.70
2014,06,21,12,08,16.50
2014,06,21,12,09,16.40
2014,06,21,12,10,16.30
2014,06,21,12,11,16.40
2014,06,21,12,12,16.50
2014,06,21,12,13,16.50
2014,06,21,12,14,16.60
2014,06,21,12,15,16.70
2014,06,21,12,16,16.80
2014,06,21,12,17,16.90
2014,06,21,12,18,16.90
2014,06,21,12,19,16.80
2014,06,21,12,20,16.80
2014,06,21,12,21,16.70
2014,06,21,12,22,16.70
2014,06,21,12,23,16.70
2014,06,21,12,24,16.70
2014,06,21,12,25,16.70
2014,06,21,12,26,16.70
2014,06,21,12,27,16.70
2014,06,21,12,28,16.70
2014,06,21,12,29,16.70
2014,06,21,12,30,16.70
2014,06,21,12,31,16.80
2014,06,21,12,32,16.90
2014,06,21,12,33,17.00
2014,06,21,12,34,17.20
2014,06,21,12,35,17.20
2014,06,21,12,36,17.20
2014,06,21,12,37,17.10
2014,06,21,12,38,17.10
2014,06,21,12,39,17.00
2014,06,21,12,40,16.90
2014,06,21,12,41,16.90
2014,06,21,12,42,17.00
2014,06,21,12,43,17.10
2014,06,21,12,44,17.10
2014,06,21,12,45,17.10
2014,06,21,12,46,17.10
2014,06,21,12,47,17.10
2014,06,21,12,48,17.10
2014,06,21,12,49,17.20
2014,06,21,12,50,17.10
2014,06,21,12,51,17.00
2014,06,21,12,52,16.90
2014,06,21,12,53,16.90
2014,06,21,12,54,16.90
2014,06,21,12,55,16.70
2014,06,21,12,56,16.70
2014,06,21,12,57,16.70
2014,06,21,12,58,16.70
2014,06,21,12,59,16.80
2014,06,21,13,00,16.90
2014,06,21,13,01,17.00
2014,06,21,13,02,17.00
2014,06,21,13,03,17.00
2014,06,21,13,04,17.10
2014,06,21,13,05,17.10
2014,06,21,13,06,17.20
2014,06,21,13,07,17.20
2014,06,21,13,08,17.10
2014,06,21,13,09,17.10
2014,06,21,13,10,17.00
2014,06,21,13,11,16.90
2014,06,21,13,12,16.80
2014,06,21,13,13,16.80
2014,06,21,13,14,16.70
2014,06,21,13,15,16.80
2014,06,21,13,16,17.00
2014,06,21,13,17,17.10
2014,06,21,13,18,17.20
2014,06,21,13,19,17.30
2014,06,21,13,20,17.30
2014,06,21,13,21,17.20
2014,06,21,13,22,17.20
2014,06,21,13,23,17.10
2014,06,21,13,24,17.20
2014,06,21,13,25,17.20
2014,06,21,13,26,17.20
2014,06,21,13,27,17.40
2014,06,21,13,28,17.50
2014,06,21,13,29,17.60
2014,06,21,13,30,17.60
2014,06,21,13,31,17.60
2014,06,21,13,32,17.50
2014,06,21,13,33,17.50
2014,06,21,13,34,17.50
2014,06,21,13,35,17.40
2014,06,21,13,36,17.30
2014,06,21,13,37,17.30
2014,06,21,13,38,17.30
2014,06,21,13,39,17.30
2014,06,21,13,40,17.30
2014,06,21,13,41,17.40
2014,06,21,13,42,17.50
2014,06,21,13,43,17.70
2014,06,21,13,44,17.80
2014,06,21,13,45,17.80
2014,06,21,13,46,17.90
2014,06,21,13,47,17.90
2014,06,21,13,48,17.80
2014,06,21,13,49,17.70
2014,06,21,13,50,17.70
2014,06,21,13,51,17.80
2014,06,21,13,52,17.80
2014,06,21,13,53,17.70
2014,06,21,13,54,17.80
2014,06,21,13,55,17.80
2014,06,21,13,56,17.80
2014,06,21,13,57,17.60
2014,06,21,13,58,17.70
2014,06,21,13,59,17.80
2014,06,21,14,00,17.80
2014,06,21,14,01,17.80
2014,06,21,14,02,17.90
2014,06,21,14,03,17.90
2014,06,21,14,04,17.90
2014,06,21,14,05,17.80
2014,06,21,14,06,17.80
2014,06,21,14,07,17.90
2014,06,21,14,08,17.90
2014,06,21,14,09,17.90
2014,06,21,14,10,17.90
2014,06,21,14,11,18.00
2014,06,21,14,12,18.10
2014,06,21,14,13,18.10
2014,06,21,14,14,18.20
2014,06,21,14,15,18.20
2014,06,21,14,16,18.30
2014,06,21,14,17,18.30
2014,06,21,14,18,18.30
2014,06,21,14,19,18.30
2014,06,21,14,20,18.20
2014,06,21,14,21,18.10
2014,06,21,14,22,18.10
2014,06,21,14,23,18.10
2014,06,21,14,24,18.00
2014,06,21,14,25,18.00
2014,06,21,14,26,18.00
2014,06,21,14,27,18.00
2014,06,21,14,28,18.00
2014,06,21,14,29,17.90
2014,06,21,14,30,17.80
2014,06,21,14,31,17.80
2014,06,21,14,32,17.80
2014,06,21,14,33,17.70
2014,06,21,14,34,17.60
2014,06,21,14,35,17.40
2014,06,21,14,36,17.20
2014,06,21,14,37,17.20
2014,06,21,14,38,17.30
2014,06,21,14,39,17.40
2014,06,21,14,40,17.40
2014,06,21,14,41,17.40
2014,06,21,14,42,17.50
2014,06,21,14,43,17.50
2014,06,21,14,44,17.60
2014,06,21,14,45,17.60
2014,06,21,14,46,17.70
2014,06,21,14,47,17.60
2014,06,21,14,48,17.50
2014,06,21,14,49,17.40
2014,06,21,14,50,17.40
2014,06,21,14,51,17.40
2014,06,21,14,52,17.40
2014,06,21,14,53,17.40
2014,06,21,14,54,17.40
2014,06,21,14,55,17.30
2014,06,21,14,56,17.40
2014,06,21,14,57,17.40
2014,06,21,14,58,17.50
2014,06,21,14,59,17.50
2014,06,21,15,00,17.60
2014,06,21,15,01,17.60
2014,06,21,15,02,17.60
2014,06,21,15,03,17.60
2014,06,21,15,04,17.80
2014,06,21,15,05,17.90
2014,06,21,15,06,17.90
2014,06,21,15,07,18.00
2014,06,21,15,08,18.00
2014,06,21,15,09,18.10
2014,06,21,15,10,18.00
2014,06,21,15,11,18.00
2014,06,21,15,12,18.10
2014,06,21,15,13,18.10
2014,06,21,15,14,18.20
2014,06,21,15,15,18.20
2014,06,21,15,16,18.30
2014,06,21,15,17,18.30
2014,06,21,15,18,18.20
2014,06,21,15,19,18.20
2014,06,21,15,20,18.20
2014,06,21,15,21,18.30
2014,06,21,15,22,18.30
2014,06,21,15,23,18.40
2014,06,21,15,24,18.40
2014,06,21,15,25,18.40
2014,06,21,15,26,18.40
2014,06,21,15,27,18.40
2014,06,21,15,28,18.40
2014,06,21,15,29,18.30
2014,06,21,15,30,18.40
2014,06,21,15,31,18.40
2014,06,21,15,32,18.40
2014,06,21,15,33,18.40
2014,06,21,15,34,18.40
2014,06,21,15,35,18.40
2014,06,21,15,36,18.30
2014,06,21,15,37,18.30
2014,06,21,15,38,18.30
2014,06,21,15,39,18.30
2014,06,21,15,40,18.30
2014,06,21,15,41,18.30
2014,06,21,15,42,18.30
2014,06,21,15,43,18.30
2014,06,21,15,44,18.40
2014,06,21,15,45,18.30
2014,06,21,15,46,18.30
2014,06,21,15,47,18.30
2014,06,21,15,48,18.20
2014,06,21,15,49,18.20
2014,06,21,15,50,18.10
2014,06,21,15,51,18.10
2014,06,21,15,52,18.10
2014,06,21,15,53,18.20
2014,06,21,15,54,18.30
2014,06,21,15,55,18.30
2014,06,21,15,56,18.40
2014,06,21,15,57,18.30
2014,06,21,15,58,18.20
2014,06,21,15,59,18.20
2014,06,21,16,00,18.20
2014,06,21,16,01,18.30
2014,06,21,16,02,18.40
2014,06,21,16,03,18.50
2014,06,21,16,04,18.50
2014,06,21,16,05,18.60
2014,06,21,16,06,18.60
2014,06,21,16,07,18.70
2014,06,21,16,08,18.70
2014,06,21,16,09,18.70
2014,06,21,16,10,18.70
2014,06,21,16,11,18.70
2014,06,21,16,12,18.80
2014,06,21,16,13,18.80
2014,06,21,16,14,18.70
2014,06,21,16,15,18.50
2014,06,21,16,16,18.50
2014,06,21,16,17,18.50
2014,06,21,16,18,18.50
2014,06,21,16,19,18.50
2014,06,21,16,20,18.50
2014,06,21,16,21,18.60
2014,06,21,16,22,18.70
2014,06,21,16,23,18.80
2014,06,21,16,24,18.90
2014,06,21,16,25,18.90
2014,06,21,16,26,18.90
2014,06,21,16,27,18.90
2014,06,21,16,28,19.00
2014,06,21,16,29,19.10
2014,06,21,16,30,19.00
2014,06,21,16,31,18.90
2014,06,21,16,32,18.90
2014,06,21,16,33,18.90
2014,06,21,16,34,18.90
2014,06,21,16,35,18.90
2014,06,21,16,36,18.90
2014,06,21,16,37,18.90
2014,06,21,16,38,19.10
2014,06,21,16,39,19.20
2014,06,21,16,40,19.20
2014,06,21,16,41,19.20
2014,06,21,16,42,19.30
2014,06,21,16,43,19.40
2014,06,21,16,44,19.50
2014,06,21,16,45,19.60
2014,06,21,16,46,19.60
2014,06,21,16,47,19.60
2014,06,21,16,48,19.70
2014,06,21,16,49,19.70
2014,06,21,16,50,19.70
2014,06,21,16,51,19.70
2014,06,21,16,52,19.70
2014,06,21,16,53,19.70
2014,06,21,16,54,19.70
2014,06,21,16,55,19.60
2014,06,21,16,56,19.60
2014,06,21,16,57,19.70
2014,06,21,16,58,19.80
2014,06,21,16,59,19.80
2014,06,21,17,00,19.70
2014,06,21,17,01,19.70
2014,06,21,17,02,19.80
2014,06,21,17,03,19.80
2014,06,21,17,04,19.90
2014,06,21,17,05,19.90
2014,06,21,17,06,19.90
2014,06,21,17,07,19.80
2014,06,21,17,08,19.80
2014,06,21,17,09,19.80
2014,06,21,17,10,19.80
2014,06,21,17,11,19.90
2014,06,21,17,12,19.90
2014,06,21,17,13,19.90
2014,06,21,17,14,19.80
2014,06,21,17,15,19.80
2014,06,21,17,16,19.70
2014,06,21,17,17,19.60
2014,06,21,17,18,19.60
2014,06,21,17,19,19.50
2014,06,21,17,20,19.40
2014,06,21,17,21,19.40
2014,06,21,17,22,19.50
2014,06,21,17,23,19.50
2014,06,21,17,24,19.60
2014,06,21,17,25,19.70
2014,06,21,17,26,19.70
2014,06,21,17,27,19.70
2014,06,21,17,28,19.60
2014,06,21,17,29,19.60
2014,06,21,17,30,19.50
2014,06,21,17,31,19.30
2014,06,21,17,32,19.30
2014,06,21,17,33,19.20
2014,06,21,17,34,19.20
2014,06,21,17,35,19.20